Starlink 32276

operational
NORAD ID: 60944 Int'l Des: 2024-155 Owner: SPXS Country: US Constellation: starlink
LEOCIRCULAR

关于 Starlink 32276

正在加载描述...

实时位置

正在加载3D地球...

即将过境

高度历史

Altitude vs Time

uPlot chart will show altitude changes over time

两行轨道根数

1 60944U 24155W 25354.69539772 -.00001217 00000-0 -28964-4 0 9993
2 60944 53.1596 136.7899 0001091 86.3442 273.7683 15.30196268 74294
Epoch: Dec 20, 2025 • Age: 9 hours

当前状态

高度 480.3 km
速度 7.63 km/s
星下点 -17.57°S, 1.46°E
发射日期 Aug 31, 2024
运行时间 1.3 years
类型 internet

技术详情

分类 Payload
质量 730.00 kg
干质量 700.00 kg
总质量 730.00 kg
长度 0.30 m
直径 4.10 m
跨度 29.00 m
形状 Box + pan
制造商 SPXS
平台类型 Starlink V2M
阶段状态 In Orbit
所有者/国家 SPXS/US

大型星座

Loading constellations...